EN

Hourly Weather Lagoda

Today, 1 August, Sunday

Time Temperature Precipitation Wind Pressure Humidity
00:00 +21°C° 0 mm 2 mps 744 mmHg 74%
01:00 +21°C° 0 mm 2 mps 744 mmHg 77%
02:00 +20°C° 0 mm 2 mps 744 mmHg 80%
03:00 +21°C° 0 mm 1 mps 744 mmHg 82%
04:00 +22°C° 0 mm 1 mps 744 mmHg 77%
05:00 +23°C° 0 mm 1 mps 745 mmHg 71%
06:00 +24°C° 0 mm 1 mps 745 mmHg 65%
07:00 +27°C° 0 mm 2 mps 745 mmHg 54%
08:00 +29°C° 0 mm 3 mps 745 mmHg 44%
09:00 +31°C° 0 mm 3 mps 745 mmHg 33%
10:00 +33°C° 0 mm 4 mps 745 mmHg 31%
11:00 +34°C° 0 mm 5 mps 745 mmHg 29%
12:00 +35°C° 0 mm 6 mps 745 mmHg 27%
13:00 +35°C° 0 mm 6 mps 745 mmHg 27%
14:00 +35°C° 0 mm 6 mps 745 mmHg 26%
15:00 +35°C° 0 mm 6 mps 745 mmHg 25%
16:00 +34°C° 0 mm 5 mps 745 mmHg 28%
17:00 +33°C° 0 mm 5 mps 745 mmHg 30%
18:00 +32°C° 0 mm 4 mps 745 mmHg 32%
19:00 +29°C° 0 mm 4 mps 745 mmHg 37%
20:00 +26°C° 0 mm 3 mps 746 mmHg 41%
21:00 +24°C° 0 mm 2 mps 746 mmHg 45%
22:00 +23°C° 0 mm 2 mps 746 mmHg 46%
23:00 +23°C° 0 mm 1 mps 746 mmHg 47%

Tomorrow, 2 August, Monday

Time Temperature Precipitation Wind Pressure Humidity
00:00 +22°C° 0 mm 1 mps 746 mmHg 48%
01:00 +22°C° 0 mm 1 mps 746 mmHg 49%
02:00 +20°C° 0 mm 0 mps 746 mmHg 50%
03:00 +19°C° 0 mm 0 mps 747 mmHg 51%
04:00 +20°C° 0 mm 0 mps 747 mmHg 49%
05:00 +22°C° 0 mm 0 mps 747 mmHg 46%
06:00 +23°C° 0 mm 0 mps 747 mmHg 44%
07:00 +25°C° 0 mm 0 mps 747 mmHg 40%
08:00 +27°C° 0 mm 0 mps 747 mmHg 36%
09:00 +31°C° 0 mm 1 mps 748 mmHg 32%
10:00 +32°C° 0 mm 1 mps 747 mmHg 30%
11:00 +35°C° 0 mm 2 mps 747 mmHg 28%
12:00 +36°C° 0 mm 2 mps 747 mmHg 25%
13:00 +36°C° 0 mm 2 mps 746 mmHg 24%
14:00 +37°C° 0 mm 2 mps 746 mmHg 22%
15:00 +37°C° 0 mm 2 mps 746 mmHg 21%
16:00 +37°C° 0 mm 2 mps 746 mmHg 23%
17:00 +36°C° 0 mm 2 mps 745 mmHg 25%
18:00 +35°C° 0 mm 2 mps 745 mmHg 27%
19:00 +32°C° 0 mm 2 mps 745 mmHg 30%
20:00 +30°C° 0 mm 1 mps 745 mmHg 32%
21:00 +28°C° 0 mm 1 mps 745 mmHg 35%
22:00 +27°C° 0 mm 1 mps 745 mmHg 37%
23:00 +26°C° 0 mm 1 mps 745 mmHg 38%

Day after tomorrow, 3 August, Tuesday

Time Temperature Precipitation Wind Pressure Humidity
00:00 +25°C° 0 mm 1 mps 745 mmHg 40%
01:00 +25°C° 0 mm 1 mps 745 mmHg 42%
02:00 +24°C° 0 mm 1 mps 745 mmHg 43%
03:00 +24°C° 0 mm 1 mps 745 mmHg 45%
04:00 +25°C° 0 mm 1 mps 745 mmHg 43%
05:00 +26°C° 0 mm 2 mps 745 mmHg 42%
06:00 +27°C° 0 mm 2 mps 745 mmHg 40%
07:00 +30°C° 0 mm 3 mps 745 mmHg 34%
08:00 +34°C° 0 mm 3 mps 745 mmHg 27%
09:00 +37°C° 0 mm 4 mps 745 mmHg 21%
10:00 +39°C° 0 mm 5 mps 744 mmHg 19%
11:00 +41°C° 0 mm 5 mps 744 mmHg 16%
12:00 +42°C° 0 mm 5 mps 743 mmHg 13%
13:00 +42°C° 0 mm 6 mps 743 mmHg 14%
14:00 +42°C° 0 mm 6 mps 743 mmHg 14%
15:00 +43°C° 0 mm 7 mps 742 mmHg 14%
16:00 +41°C° 0 mm 6 mps 742 mmHg 15%
17:00 +40°C° 0 mm 5 mps 742 mmHg 17%
18:00 +39°C° 0 mm 5 mps 742 mmHg 18%
19:00 +35°C° 0 mm 4 mps 743 mmHg 25%
20:00 +32°C° 0 mm 4 mps 743 mmHg 31%
21:00 +28°C° 0 mm 4 mps 744 mmHg 37%
22:00 +27°C° 0 mm 3 mps 744 mmHg 44%
23:00 +25°C° 0 mm 2 mps 743 mmHg 50%

4 August, Wednesday

Time Temperature Precipitation Wind Pressure Humidity
00:00 +24°C° 0 mm 1 mps 743 mmHg 57%
01:00 +24°C° 0 mm 1 mps 743 mmHg 55%
02:00 +24°C° 0 mm 1 mps 743 mmHg 53%
03:00 +24°C° 0 mm 1 mps 743 mmHg 52%
04:00 +25°C° 0 mm 2 mps 743 mmHg 51%
05:00 +26°C° 0 mm 2 mps 743 mmHg 50%
06:00 +26°C° 0 mm 2 mps 743 mmHg 49%
07:00 +28°C° 0 mm 3 mps 743 mmHg 44%
08:00 +30°C° 0 mm 3 mps 744 mmHg 38%
09:00 +34°C° 0 mm 3 mps 744 mmHg 33%
10:00 +34°C° 0 mm 4 mps 744 mmHg 32%
11:00 +35°C° 0 mm 5 mps 744 mmHg 31%
12:00 +36°C° 0 mm 5 mps 744 mmHg 30%
13:00 +36°C° 0 mm 5 mps 744 mmHg 28%
14:00 +36°C° 0 mm 5 mps 744 mmHg 26%
15:00 +36°C° 0 mm 5 mps 744 mmHg 24%
16:00 +34°C° 0 mm 4 mps 744 mmHg 28%
17:00 +33°C° 0 mm 4 mps 744 mmHg 31%
18:00 +30°C° 0 mm 4 mps 744 mmHg 35%
19:00 +28°C° 0 mm 4 mps 744 mmHg 43%
20:00 +26°C° 0 mm 4 mps 745 mmHg 51%
21:00 +23°C° 0 mm 4 mps 745 mmHg 59%
22:00 +22°C° 0 mm 3 mps 745 mmHg 64%
23:00 +22°C° 0 mm 3 mps 745 mmHg 69%

5 August, Thursday

Time Temperature Precipitation Wind Pressure Humidity
00:00 +21°C° 0 mm 3 mps 745 mmHg 74%
01:00 +20°C° 0 mm 3 mps 745 mmHg 79%
02:00 +19°C° 0 mm 2 mps 745 mmHg 85%
03:00 +18°C° 0 mm 2 mps 746 mmHg 90%
04:00 +19°C° 0 mm 3 mps 746 mmHg 85%
05:00 +20°C° 0 mm 4 mps 746 mmHg 80%
06:00 +20°C° 0 mm 4 mps 746 mmHg 76%
07:00 +22°C° 0 mm 5 mps 746 mmHg 67%
08:00 +25°C° 0 mm 5 mps 746 mmHg 58%
09:00 +27°C° 0 mm 6 mps 746 mmHg 50%
10:00 +28°C° 0 mm 6 mps 746 mmHg 44%
11:00 +29°C° 0 mm 6 mps 746 mmHg 38%
12:00 +30°C° 0 mm 6 mps 745 mmHg 33%
13:00 +32°C° 0 mm 6 mps 745 mmHg 30%
14:00 +32°C° 0 mm 6 mps 745 mmHg 28%
15:00 +33°C° 0 mm 6 mps 745 mmHg 26%
16:00 +32°C° 0 mm 7 mps 745 mmHg 27%
17:00 +30°C° 0 mm 7 mps 745 mmHg 28%
18:00 +29°C° 0 mm 7 mps 745 mmHg 29%
19:00 +27°C° 0 mm 7 mps 746 mmHg 34%
20:00 +24°C° 0 mm 6 mps 746 mmHg 38%
21:00 +22°C° 0 mm 5 mps 746 mmHg 42%
22:00 +21°C° 0 mm 5 mps 747 mmHg 46%
23:00 +19°C° 0 mm 4 mps 747 mmHg 50%

6 August, Friday

Time Temperature Precipitation Wind Pressure Humidity
00:00 +18°C° 0 mm 3 mps 747 mmHg 54%
01:00 +17°C° 0 mm 3 mps 747 mmHg 57%
02:00 +16°C° 0 mm 3 mps 747 mmHg 60%
03:00 +14°C° 0 mm 3 mps 747 mmHg 63%
04:00 +16°C° 0 mm 3 mps 747 mmHg 61%
05:00 +17°C° 0 mm 3 mps 748 mmHg 58%
06:00 +18°C° 0 mm 4 mps 748 mmHg 56%
07:00 +20°C° 0 mm 4 mps 748 mmHg 50%
08:00 +22°C° 0 mm 5 mps 748 mmHg 44%
09:00 +25°C° 0 mm 5 mps 748 mmHg 38%
10:00 +26°C° 0 mm 5 mps 748 mmHg 34%
11:00 +27°C° 0 mm 5 mps 748 mmHg 30%
12:00 +28°C° 0 mm 4 mps 748 mmHg 26%
13:00 +29°C° 0 mm 5 mps 748 mmHg 24%
14:00 +29°C° 0 mm 5 mps 748 mmHg 21%
15:00 +30°C° 0 mm 5 mps 748 mmHg 19%
16:00 +29°C° 0 mm 5 mps 748 mmHg 20%
17:00 +28°C° 0 mm 5 mps 748 mmHg 21%
18:00 +27°C° 0 mm 5 mps 748 mmHg 21%
19:00 +25°C° 0 mm 4 mps 748 mmHg 27%
20:00 +21°C° 0 mm 4 mps 749 mmHg 33%
21:00 +18°C° 0 mm 3 mps 749 mmHg 38%
22:00 +18°C° 0 mm 3 mps 749 mmHg 41%
23:00 +17°C° 0 mm 3 mps 749 mmHg 44%
Show more